"Pseudo-MPEC" for P10U9zt

Created 2019 Nov 13 0:07:13 UT using Find_Orb

Click here for an explanation of pseudo-MPECs

 
 Astrometry: 
     P10U9zt  C2019 11 05wb$dUqwn3CPkP*KYcC(xrZg)r'$'WUDAstrometry\?y-G@9Qe@\F51
     P10U9zt  C2019 11 05oEoXix1aXxD4p%redacted;lR7GPMg)Z]*Tw[?qqhpgF_eWw/y1XF51
     P10U9zt  C2019 11 05#2o$BkEV)O0ZdclickO+\=!I;hOoe_nP?'-+v1G?Wlu`u`@_5KA-F51
     P10U9zt  C2019 11 05D%Ahere2forTkQm_[2@h==d610eq_KexplanationkE;p@HP?Mr+F51

Station data:
(F51) Pan-STARRS 1, Haleakala  (N20.707235 W156.255910)  US/Hawaii.
   Observers N. Primak, A. Schultz, S. Watters, J. Thiel, T. Goggia. Measurer
   PS1 Science Consortium. 1.8-m Ritchey-Chrétien + CCD.

Orbital elements:  P10U9zt
   Perihelion 2020 Mar 30.744869 +/- 112 TT = 17:52:36 (JD 2458939.244869)
Epoch 2019 Nov  6.0 TT = JDT 2458793.5   Earth MOID: 0.0205   AutoNEOCP
M 210.65588531 +/- 100              (J2000 ecliptic)
n   1.02469552 +/- 0.526            Peri.    5.56905 +/- 56
a   0.97440497 +/- 0.334            Node   191.11374 +/- 54
e   0.0803563 +/- 0.224             Incl.    1.53121 +/- 51
P   0.96/351.32d           H 26.7   G  0.15   U 12.3  SR
q 0.89610533 +/- 0.486    Q 1.05270460 +/- 14.7
From 4 observations 2019 Nov. 5 (54.5 min); mean residual 0".11
Residuals in arcseconds: 
191105 F51  .15+  .03+    191105 F51  .12-  .09+    
191105 F51  .17-  .09-    191105 F51  .14+  .03-    

Ephemerides (geocentric):
Date (UTC) HH   RA              Dec         delta   r     elong  mag " sig PA
---- -- -- --  -------------   -----------  ------ ------ -----  --- ---- ---
2019 11 13 00  02 33 09.159   -04 46 04.61  .05317 1.0384 155.7 21.5  32d 178
2019 11 13 01  02 32 58.930   -04 47 52.27  .05317 1.0384 155.6 21.5  32d 178
2019 11 13 02  02 32 48.704   -04 49 39.81  .05317 1.0383 155.5 21.5  32d 178
2019 11 13 03  02 32 38.482   -04 51 27.23  .05318 1.0383 155.5 21.5  32d 178
2019 11 13 04  02 32 28.263   -04 53 14.52  .05318 1.0383 155.4 21.6  32d 178
2019 11 13 05  02 32 18.047   -04 55 01.68  .05319 1.0382 155.3 21.6  32d 178
2019 11 13 06  02 32 07.834   -04 56 48.72  .05319 1.0382 155.3 21.6  32d 178
2019 11 13 07  02 31 57.625   -04 58 35.63  .05319 1.0382 155.2 21.6  32d 178
2019 11 13 08  02 31 47.419   -05 00 22.41  .05320 1.0381 155.1 21.6  32d 178
2019 11 13 09  02 31 37.217   -05 02 09.06  .05320 1.0381 155.1 21.6  32d 178
2019 11 13 10  02 31 27.018   -05 03 55.59  .05321 1.0381 155.0 21.6  32d 178
2019 11 13 11  02 31 16.823   -05 05 41.98  .05321 1.0380 154.9 21.6  32d 178
2019 11 13 12  02 31 06.631   -05 07 28.24  .05322 1.0380 154.8 21.6  32d 178
2019 11 13 13  02 30 56.443   -05 09 14.38  .05322 1.0380 154.8 21.6  32d 178
2019 11 13 14  02 30 46.259   -05 11 00.38  .05322 1.0380 154.7 21.6  32d 178
2019 11 13 15  02 30 36.078   -05 12 46.26  .05323 1.0379 154.6 21.6  32d 178
2019 11 13 16  02 30 25.901   -05 14 32.00  .05323 1.0379 154.6 21.6  33d 178
2019 11 13 17  02 30 15.728   -05 16 17.61  .05324 1.0379 154.5 21.6  33d 178
2019 11 13 18  02 30 05.559   -05 18 03.09  .05324 1.0378 154.4 21.6  33d 178
2019 11 13 19  02 29 55.394   -05 19 48.44  .05325 1.0378 154.3 21.6  33d 178
2019 11 13 20  02 29 45.233   -05 21 33.65  .05325 1.0378 154.3 21.6  33d 178
2019 11 13 21  02 29 35.076   -05 23 18.73  .05326 1.0377 154.2 21.6  33d 178
2019 11 13 22  02 29 24.922   -05 25 03.68  .05327 1.0377 154.1 21.6  33d 178
2019 11 13 23  02 29 14.773   -05 26 48.49  .05327 1.0377 154.1 21.6  33d 178
2019 11 14 00  02 29 04.628   -05 28 33.17  .05328 1.0376 154.0 21.6  33d 178
2019 11 14 01  02 28 54.487   -05 30 17.71  .05328 1.0376 153.9 21.6  33d 178
2019 11 14 02  02 28 44.350   -05 32 02.11  .05329 1.0376 153.8 21.6  33d 178
2019 11 14 03  02 28 34.218   -05 33 46.39  .05329 1.0375 153.8 21.6  33d 178
2019 11 14 04  02 28 24.090   -05 35 30.52  .05330 1.0375 153.7 21.6  33d 178
2019 11 14 05  02 28 13.966   -05 37 14.52  .05330 1.0375 153.6 21.6  33d 178
2019 11 14 06  02 28 03.846   -05 38 58.38  .05331 1.0374 153.5 21.6  33d 178
2019 11 14 07  02 27 53.731   -05 40 42.10  .05332 1.0374 153.5 21.6  33d 178
2019 11 14 08  02 27 43.621   -05 42 25.69  .05332 1.0374 153.4 21.6  33d 178
2019 11 14 09  02 27 33.515   -05 44 09.14  .05333 1.0373 153.3 21.6  33d 177
2019 11 14 10  02 27 23.413   -05 45 52.44  .05334 1.0373 153.3 21.6  34d 177
2019 11 14 11  02 27 13.316   -05 47 35.61  .05334 1.0373 153.2 21.6  34d 177
2019 11 14 12  02 27 03.223   -05 49 18.64  .05335 1.0372 153.1 21.6  34d 177
2019 11 14 13  02 26 53.136   -05 51 01.54  .05335 1.0372 153.0 21.6  34d 177
2019 11 14 14  02 26 43.053   -05 52 44.29  .05336 1.0372 153.0 21.6  34d 177
2019 11 14 15  02 26 32.974   -05 54 26.90  .05337 1.0371 152.9 21.6  34d 177
2019 11 14 16  02 26 22.901   -05 56 09.36  .05337 1.0371 152.8 21.6  34d 177
2019 11 14 17  02 26 12.832   -05 57 51.69  .05338 1.0371 152.7 21.6  34d 177
2019 11 14 18  02 26 02.768   -05 59 33.88  .05339 1.0370 152.7 21.6  34d 177
2019 11 14 19  02 25 52.709   -06 01 15.92  .05339 1.0370 152.6 21.6  34d 177
2019 11 14 20  02 25 42.655   -06 02 57.82  .05340 1.0370 152.5 21.6  34d 177
2019 11 14 21  02 25 32.606   -06 04 39.58  .05341 1.0369 152.5 21.6  34d 177
2019 11 14 22  02 25 22.562   -06 06 21.20  .05342 1.0369 152.4 21.6  34d 177
2019 11 14 23  02 25 12.523   -06 08 02.67  .05342 1.0369 152.3 21.6  34d 177